User: anonymous   Login
Location: Unspecified
(0.0000°N, 0.0000°E)
Time: 23:49:44
(UTC+00:00)
Language:

STARLINK-35284 - Orbit

View from above orbital plane
View from above orbital plane
View from above satellite
View from above satellite

Ground track
Ground track

The orbit is defined by the following mean orbital elements,

1 65741U          26145.25412166 +.00000000 +00000-0 +91091-3 0 00004
2 65741  53.1625 337.4266 0000247 121.3871 238.7154 15.30217545    07
Epoch (UTC): 25 May 2026 06:05:56
Eccentricity: 0.0000247
inclination: 53.1625°
perigee height: 475 km
apogee height: 475 km
right ascension of ascending node: 337.4266°
argument of perigee: 121.3871°
revolutions per day: 15.30217545
mean anomaly at epoch: 238.7154°

The dashed part of the orbit path shows where the satellite is in the earth's shadow,  

DLR